Temp_Advection
nan nan nan nan nan nan nan nan nan nan nan nan nan nan nan nan nan nan nan nan nan nan
nan -0 -0 0 0 0 -0 0 0 0 -0 -0 0 -0 -0 -0 -0 0 -0 -0 -0 nan
nan -0 0 0 0 0 0 0 0 -0 -0 -0 0 -0 -0 -0 0 0 -0 -0 -0 nan
nan -0 0 0 0 0 0 0 -0 0 0 0 0 -0 -0 0 -0 0 -0 0 0 nan
nan -0 -0 0 0 0 0 -0 0 0 0 -0 -0 -0 0 -0 0 0 -0 0 0 nan
nan 0 0 0 0 -0 -0 -0 -0 0 -0 -0 -0 -0 0 0 0 -0 -0 -0 -0 nan
nan 0 0 0 0 0 -0 -0 0 -0 -0 0 -0 -0 -0 -0 -0 -0 -0 -0 -0 nan
nan 0 0 0 0 0 0 -0 -0 0 0 -0 -0 -0 -0 -0 -0 -0 -0 -0 -0 nan
nan 0 0 0 0 0 0 0 -0 -0 0 -0 -1 -0 0 0 -0 -0 -0 0 -0 nan
nan 0 0 0 0 0 -0 -0 0 0 -0 -1 -1 0 0 0 -0 -0 0 -0 -0 nan
nan 0 0 -0 0 -0 -0 0 0 -0 -0 -0 -1 -1 0 0 0 0 -0 0 0 nan
nan 0 0 0 0 -0 -0 0 -0 0 0 -0 -0 0 -0 -0 1 0 -1 -1 0 nan
nan -0 -0 -0 -0 -0 -0 -0 -0 0 -0 -0 -0 -0 -0 0 1 -0 -0 -1 -2 nan
nan nan nan nan nan nan nan nan nan nan nan nan nan nan nan nan nan nan nan nan nan nan
Wind_Speed
15 12 14 12 12 7 6 7 13 9 10 9 7 7 10 9 11 9 7 7 7 7
17 16 14 14 11 9 9 17 7 8 9 8 8 8 10 9 10 8 11 8 10 9
19 17 18 15 15 13 12 11 14 11 9 10 10 10 11 9 9 13 9 10 12 13
17 18 17 17 16 16 15 11 12 7 11 10 10 11 11 13 9 11 14 15 10 12
17 17 18 18 18 16 17 16 15 16 14 14 13 13 13 13 11 11 12 13 14 14
18 18 19 20 18 19 17 17 16 16 16 16 16 15 17 16 14 13 13 13 14 14
18 18 18 19 20 19 20 18 18 19 19 17 16 16 16 17 17 15 15 15 15 15
15 17 20 19 20 21 21 21 20 19 21 21 19 18 19 19 18 17 17 17 18 17
9 16 15 17 20 22 23 24 24 23 23 24 23 23 23 23 22 22 21 21 19 20
16 16 17 17 20 20 24 24 26 27 26 27 29 26 29 30 28 25 24 24 25 22
9 12 16 21 20 23 22 23 26 29 30 31 31 32 30 33 36 34 33 29 25 27
4 7 11 17 18 20 23 26 28 27 29 32 34 34 34 34 35 35 38 39 38 36
10 16 15 15 14 13 21 22 23 24 28 31 34 35 36 38 37 34 38 37 40 41
14 13 12 17 19 20 16 21 25 25 29 32 33 33 36 37 37 39 35 36 35 35
Wind_Direction
212 212 212 227 207 238 195 193 221 231 198 189 215 196 210 216 205 225 224 230 205 191
216 203 214 219 224 220 218 226 184 203 197 201 213 208 220 208 216 219 213 225 212 205
217 219 204 214 220 221 227 241 222 188 209 205 211 209 213 220 222 220 214 220 231 231
217 219 218 214 218 222 223 228 248 213 222 223 219 223 225 201 227 221 214 209 228 239
219 217 222 219 218 221 225 224 223 231 224 230 229 228 233 230 219 228 225 234 229 234
222 222 221 226 221 221 226 229 223 230 232 228 230 227 230 231 224 227 232 230 234 236
223 220 228 225 227 226 227 234 232 219 229 235 234 233 236 237 225 228 235 238 239 241
211 245 233 225 229 229 227 233 239 238 225 228 235 238 234 234 239 235 236 239 244 246
225 215 230 238 229 227 230 230 233 239 239 232 233 237 236 235 235 243 243 248 249 246
228 232 225 226 235 235 228 228 239 239 238 241 247 236 234 239 236 234 243 245 248 247
208 210 229 244 242 237 236 237 238 238 243 242 244 248 242 237 241 242 240 237 248 251
241 198 216 221 235 250 246 244 239 241 243 245 249 243 246 246 243 245 248 251 247 242
308 262 250 251 246 233 244 247 245 244 247 246 249 249 249 243 244 244 249 254 256 254
300 296 286 276 261 252 252 255 251 250 249 244 241 248 251 249 246 241 243 249 248 257
Height
1590 1594 1596 1597 1598 1601 1600 1599 1601 1603 1605 1607 1609 1611 1612 1615 1616 1618 1618 1618 1617 1617
1587 1590 1594 1596 1597 1599 1600 1597 1601 1603 1605 1607 1609 1611 1612 1612 1614 1614 1617 1617 1617 1617
1583 1586 1589 1593 1595 1597 1598 1599 1596 1600 1604 1606 1608 1609 1610 1611 1612 1614 1616 1616 1617 1617
1580 1584 1585 1588 1591 1593 1595 1596 1596 1599 1602 1605 1607 1608 1608 1608 1610 1611 1612 1613 1615 1615
1577 1580 1583 1584 1587 1590 1592 1594 1596 1598 1600 1602 1604 1606 1606 1608 1609 1610 1611 1612 1612 1614
1573 1576 1579 1582 1583 1586 1587 1590 1593 1595 1597 1599 1601 1602 1604 1605 1606 1608 1609 1610 1610 1611
1568 1572 1574 1578 1580 1582 1583 1585 1587 1591 1594 1595 1597 1599 1600 1601 1602 1604 1606 1607 1607 1608
1564 1566 1568 1573 1576 1578 1580 1580 1582 1585 1589 1592 1594 1596 1597 1599 1599 1599 1602 1603 1603 1604
1558 1560 1564 1567 1570 1572 1574 1576 1578 1579 1582 1585 1588 1591 1593 1594 1595 1596 1597 1598 1599 1600
1552 1556 1559 1561 1564 1565 1567 1571 1572 1574 1576 1577 1579 1583 1586 1588 1589 1591 1592 1592 1594 1595
1548 1550 1553 1556 1557 1559 1561 1563 1565 1567 1568 1570 1572 1574 1577 1580 1581 1583 1585 1586 1587 1588
1546 1546 1548 1548 1551 1554 1555 1556 1557 1559 1561 1562 1563 1566 1569 1572 1574 1574 1575 1576 1578 1580
1545 1545 1545 1545 1544 1545 1548 1550 1551 1550 1552 1554 1555 1557 1559 1563 1566 1567 1566 1567 1567 1569
1542 1542 1542 1542 1542 1542 1541 1542 1543 1542 1542 1544 1547 1548 1550 1552 1554 1556 1559 1559 1560 1559